Regional Weather Roundup
Issued by NWS

Home | Current Version | Previous Version | Graphics & Text | Print | Product List | Glossary On
Versions: 1 2 3 4 5 6 7 8 9 10 11 12 13 14 15 16 17 18 19 20 21 22 23 24 25 26 27 28 29 30 31 32 33 34 35 36 37 38 39 40 41 42 43 44 45 46 47 48 49 50
000
ASUS43 KBIS 210510
RWRND

NORTH DAKOTA REGIONAL WEATHER ROUNDUP
NATIONAL WEATHER SERVICE BISMARCK ND
1200 AM CDT THU SEP 21 2017

NOTE: "FAIR" INDICATES FEW OR NO CLOUDS BELOW 12,000 FEET WITH NO
SIGNIFICANT WEATHER AND/OR OBSTRUCTIONS TO VISIBILITY.


NDZ001>003-009>011-017-210600-
NORTHWEST NORTH DAKOTA

CITY           SKY/WX    TMP DP  RH WIND       PRES   REMARKS
WILLISTON      CLEAR     42  37  82 CALM      29.64R
MINOT          PTCLDY    51  39  63 SE6       29.67S
MINOT AFB      CLOUDY    47  38  72 S7        29.65S
$$

NDZ018>021-031>035-040>046-210600-
SOUTHWEST NORTH DAKOTA

CITY           SKY/WX    TMP DP  RH WIND       PRES   REMARKS
BISMARCK       PTCLDY    56  41  57 S9        29.75S
DICKINSON      CLOUDY    51  36  56 S8        29.68F
GARRISON         N/A     56  43  61 S12       29.70R
HETTINGER ARPT CLOUDY    53  35  50 SE7       29.74S
$$

NDZ004>008-012>016-024-026-027-054-210600-
NORTHEAST NORTH DAKOTA

CITY           SKY/WX    TMP DP  RH WIND       PRES   REMARKS
GRAND FORKS    CLEAR     56  45  66 S13       29.80S
GRND FRKS AFB  CLEAR     55  43  65 S9        29.80S
DEVILS LAKE    CLEAR     60  40  47 S17       29.77R
$$

NDZ022-023-025-028>030-036>039-047>053-210600-
SOUTHEAST NORTH DAKOTA

CITY           SKY/WX    TMP DP  RH WIND       PRES   REMARKS
FARGO          CLEAR     59  44  57 S13       29.85S
JAMESTOWN      PTCLDY    53  43  68 S9        29.80S
$$




USA.gov is the U.S. government's official web portal to all federal, state and local government web resources and services.